Weather History for Hollywood, FL

Change the Weather History Date:

Saturday, April 20, 2013

  Actual Average (KFLL) Record (KFLL)
Temperature  
Mean Temperature 78 °F 77 °F  
Max Temperature 90 °F 83 °F 91 °F (1969)
Min Temperature 69 °F 70 °F 55 °F (1956)
Degree Days  
Heating Degree Days 0 0  
Month to date heating degree days 0  
Since 1 July heating degree days 111  
Cooling Degree Days 14 12  
Month to date cooling degree days 213  
Year to date cooling degree days 823  
Growing Degree Days 28 (Base 50)    
Moisture  
Dew Point 71 °F    
Average Humidity 81    
Maximum Humidity 94    
Minimum Humidity 45    
Precipitation  
Precipitation 1.30 in 0.11 in 1.60 in (1934)
Month to date precipitation 2.08  
Year to date precipitation 12.03  
Snow  
Snow 0.00 in - - ()
Month to date snowfall  
Since 1 July snowfall  
Snow Depth -    
Sea Level Pressure  
Sea Level Pressure 30.03 in    
Wind  
Wind Speed 7 mph (SE)    
Max Wind Speed 29 mph    
Max Gust Speed 38 mph    
Visibility 9 miles    
Events Rain , Thunderstorm    
T = Trace of Precipitation, MM = Missing Value Source: NWS Daily Summary

Daily Weather History Graph

Daily Weather History Graph

Search for Another Location

Airport:

Trip Planner

Search our weather history database for the weather conditions in past years. The results will help you decide how hot, cold, wet, or windy it might be!

Date:

Astronomy

Apr. 20, 2013 Rise Set
Actual Time 6:52 AM EDT 7:47 PM EDT
Civil Twilight 6:29 AM EDT 8:10 PM EDT
Nautical Twilight 6:01 AM EDT 8:38 PM EDT
Astronomical Twilight 5:32 AM EDT 9:07 PM EDT
Moon 2:58 PM EDT 3:09 AM EDT
Length of Visible Light 13h 41m
Length of Day
12h 54m
Waxing Gibbous, 71% of the Moon is Illuminated
Apr 20
Waxing Gibbous
Apr 25
Full
May 2
Last Quarter
May 9
New
May 18
First Quarter

Hourly Weather History & Observations

Time (EDT) Temp. Heat Index Dew Point Humidity Pressure Visibility Wind Dir Wind Speed Gust Speed Precip Events Conditions
12:21 AM 78.8 °F - 71.6 °F 78% 30.05 in 10.0 mi SSE 5.8 mph - N/A   Scattered Clouds
12:53 AM 79.0 °F - 72.0 °F 79% 30.04 in 10.0 mi SE 11.5 mph - N/A   Mostly Cloudy
1:18 AM 80.6 °F 85.4 °F 73.4 °F 79% 30.03 in 10.0 mi SSE 8.1 mph - N/A   Mostly Cloudy
1:53 AM 75.9 °F - 73.0 °F 91% 30.02 in 10.0 mi Calm Calm - 0.23 in Rain Light Rain
2:06 AM 77.0 °F - 73.4 °F 89% 30.01 in 10.0 mi SSE 4.6 mph - 0.00 in   Overcast
2:53 AM 77.0 °F - 73.9 °F 90% 30.01 in 10.0 mi South 5.8 mph - 0.00 in   Partly Cloudy
3:38 AM 77.0 °F - 73.4 °F 89% 30.00 in 10.0 mi South 4.6 mph - N/A   Mostly Cloudy
3:53 AM 78.1 °F - 73.9 °F 87% 30.00 in 10.0 mi South 5.8 mph - 0.00 in Rain Light Rain
4:20 AM 78.8 °F - 73.4 °F 83% 29.99 in 10.0 mi SSW 9.2 mph - 0.00 in   Overcast
4:53 AM 77.0 °F - 73.0 °F 88% 30.00 in 10.0 mi South 4.6 mph - 0.00 in   Partly Cloudy
5:53 AM 75.9 °F - 73.0 °F 91% 30.00 in 10.0 mi Calm Calm - N/A   Scattered Clouds
6:53 AM 75.9 °F - 73.0 °F 91% 30.01 in 10.0 mi WSW 3.5 mph - N/A   Mostly Cloudy
7:53 AM 77.0 °F - 75.0 °F 94% 30.03 in 10.0 mi Calm Calm - N/A   Clear
8:53 AM 79.0 °F - 73.9 °F 84% 30.04 in 10.0 mi SW 4.6 mph - N/A   Scattered Clouds
9:03 AM 78.8 °F - 73.4 °F 83% 30.04 in 10.0 mi WSW 3.5 mph - N/A   Mostly Cloudy
9:26 AM 80.6 °F 85.4 °F 73.4 °F 79% 30.03 in 10.0 mi WSW 9.2 mph - N/A   Scattered Clouds
9:53 AM 82.0 °F 87.9 °F 73.9 °F 76% 30.04 in 10.0 mi WSW 10.4 mph - N/A   Partly Cloudy
10:53 AM 84.0 °F 90.2 °F 73.0 °F 69% 30.05 in 10.0 mi Calm Calm - N/A   Scattered Clouds
11:53 AM 87.1 °F 92.8 °F 71.1 °F 59% 30.06 in 10.0 mi Calm Calm - N/A   Partly Cloudy
12:53 PM 87.1 °F 89.2 °F 66.0 °F 49% 30.04 in 10.0 mi Variable 3.5 mph - N/A   Partly Cloudy
1:53 PM 88.0 °F 89.3 °F 64.0 °F 45% 30.02 in 10.0 mi Variable 3.5 mph - N/A   Partly Cloudy
2:50 PM 84.2 °F 90.9 °F 73.4 °F 70% 30.00 in 10.0 mi SSE 4.6 mph - N/A   Overcast
2:53 PM 84.9 °F 91.4 °F 73.0 °F 67% 30.00 in 10.0 mi ESE 6.9 mph - N/A   Overcast
3:17 PM 86.0 °F 93.4 °F 73.4 °F 66% 29.98 in 10.0 mi SE 9.2 mph - N/A   Mostly Cloudy
3:53 PM 86.0 °F 92.2 °F 72.0 °F 63% 29.98 in 10.0 mi SSE 12.7 mph - N/A   Partly Cloudy
4:53 PM 84.0 °F 88.4 °F 70.0 °F 63% 29.96 in 10.0 mi SSE 13.8 mph - N/A   Partly Cloudy
4:59 PM 82.4 °F 86.3 °F 69.8 °F 66% 30.00 in 10.0 mi NNW 27.6 mph 38.0 mph N/A Thunderstorm Thunderstorm
5:05 PM 75.2 °F - 68.0 °F 78% 30.01 in 1.0 mi NW 24.2 mph 38.0 mph 0.03 in Rain , Thunderstorm Thunderstorms and Rain
5:12 PM 73.4 °F - 69.8 °F 88% 30.04 in 1.0 mi NNW 28.8 mph 38.0 mph 0.31 in Rain , Thunderstorm Heavy Thunderstorms and Rain
5:20 PM 73.4 °F - 69.8 °F 88% 30.05 in 1.0 mi North 11.5 mph 36.8 mph 0.60 in Thunderstorm Overcast
5:27 PM 69.8 °F - 66.2 °F 88% 30.03 in 1.0 mi NE 12.7 mph - 0.83 in Rain , Thunderstorm Heavy Thunderstorms and Rain
5:31 PM 69.8 °F - 66.2 °F 88% 30.04 in 10.0 mi North 8.1 mph - 0.88 in Rain , Thunderstorm Heavy Thunderstorms and Rain
5:51 PM 71.6 °F - 69.8 °F 94% 30.02 in 10.0 mi Variable 3.5 mph - 1.03 in Rain , Thunderstorm Rain
5:53 PM 71.1 °F - 69.1 °F 93% 30.03 in 10.0 mi NE 4.6 mph - 1.04 in Rain , Thunderstorm Heavy Rain
6:12 PM 71.6 °F - 69.8 °F 94% 30.02 in 10.0 mi North 6.9 mph - 0.02 in Rain Light Rain
6:49 PM 73.4 °F - 69.8 °F 88% 30.03 in 10.0 mi NE 10.4 mph - 0.03 in Thunderstorm Overcast
6:53 PM 73.0 °F - 70.0 °F 90% 30.03 in 10.0 mi NE 11.5 mph - 0.03 in Thunderstorm Overcast
7:04 PM 73.4 °F - 71.6 °F 94% 30.03 in 10.0 mi NNE 11.5 mph - N/A   Mostly Cloudy
7:53 PM 73.0 °F - 71.1 °F 93% 30.04 in 10.0 mi ESE 4.6 mph - N/A   Clear
8:53 PM 73.0 °F - 70.0 °F 90% 30.06 in 10.0 mi North 3.5 mph - N/A   Partly Cloudy
9:53 PM 75.0 °F - 72.0 °F 90% 30.09 in 10.0 mi North 5.8 mph - N/A   Clear
10:53 PM 75.0 °F - 72.0 °F 90% 30.09 in 10.0 mi North 3.5 mph - N/A   Clear
11:53 PM 75.0 °F - 72.0 °F 90% 30.10 in 10.0 mi WNW 3.5 mph - N/A   Partly Cloudy